When you browse on this site, cookies collect data to enhance your experience and personalize the content and advertising you see.
Visit our Privacy Policy to learn more. By continuing to use the site, you agree to this use of cookies and data.
  • In Hungary
  • List of Countries
  • For 7 days
  • Water Temperature
  • Weather Map
  • News
  • Weather Widgets
  • user-avatar
    Login

    Hourly Weather Leninskoe

    Today, 15 October, Tuesday

    Time Temperature Precipitation Wind Pressure Humidity
    00:00 +4°C° 0 mm 4 mps 737 mmHg 89%
    01:00 +3°C° 0 mm 4 mps 737 mmHg 91%
    02:00 +3°C° 0 mm 4 mps 737 mmHg 93%
    03:00 +3°C° 0 mm 3 mps 737 mmHg 94%
    04:00 +3°C° 0 mm 3 mps 737 mmHg 96%
    05:00 +3°C° 0 mm 3 mps 737 mmHg 96%
    06:00 +3°C° 0 mm 3 mps 736 mmHg 96%
    07:00 +3°C° 0 mm 3 mps 736 mmHg 96%
    08:00 +4°C° 0.6 mm 3 mps 735 mmHg 95%
    09:00 +5°C° 0.6 mm 2 mps 735 mmHg 95%
    10:00 +5°C° 0 mm 2 mps 734 mmHg 94%
    11:00 +5°C° 0.2 mm 2 mps 734 mmHg 92%
    12:00 +7°C° 0.2 mm 1 mps 733 mmHg 90%
    13:00 +7°C° 0.2 mm 1 mps 733 mmHg 88%
    14:00 +7°C° 0 mm 1 mps 733 mmHg 88%
    15:00 +6°C° 0 mm 2 mps 733 mmHg 89%
    16:00 +6°C° 0 mm 2 mps 733 mmHg 90%
    17:00 +4°C° 0.1 mm 3 mps 733 mmHg 90%
    18:00 +4°C° 0.1 mm 3 mps 734 mmHg 91%
    19:00 +4°C° 0.1 mm 3 mps 734 mmHg 91%
    20:00 +3°C° 0 mm 3 mps 735 mmHg 91%
    21:00 +3°C° 0 mm 3 mps 735 mmHg 91%
    22:00 +3°C° 0 mm 4 mps 736 mmHg 90%
    23:00 +3°C° 0 mm 3 mps 736 mmHg 91%

    Tomorrow, 16 October, Wednesday

    Time Temperature Precipitation Wind Pressure Humidity
    00:00 +2°C° 0 mm 3 mps 737 mmHg 92%
    01:00 +2°C° 0 mm 3 mps 737 mmHg 93%
    02:00 +1°C° 0.1 mm 4 mps 738 mmHg 93%
    03:00 0°C° 0.1 mm 4 mps 739 mmHg 93%
    04:00 0°C° 0.1 mm 4 mps 739 mmHg 92%
    05:00 0°C° 0 mm 5 mps 740 mmHg 92%
    06:00 0°C° 0 mm 5 mps 740 mmHg 92%
    07:00 0°C° 0 mm 5 mps 740 mmHg 92%
    08:00 -1°C° 0.1 mm 6 mps 741 mmHg 87%
    09:00 +1°C° 0.1 mm 6 mps 741 mmHg 82%
    10:00 +1°C° 0.1 mm 6 mps 742 mmHg 77%
    11:00 +1°C° 0 mm 6 mps 743 mmHg 75%
    12:00 +1°C° 0 mm 6 mps 743 mmHg 74%
    13:00 -1°C° 0 mm 6 mps 743 mmHg 73%
    14:00 -1°C° 0 mm 6 mps 744 mmHg 73%
    15:00 -1°C° 0 mm 6 mps 745 mmHg 73%
    16:00 0°C° 0 mm 5 mps 745 mmHg 74%
    17:00 0°C° 0 mm 5 mps 746 mmHg 75%
    18:00 0°C° 0 mm 5 mps 746 mmHg 76%
    19:00 -1°C° 0 mm 4 mps 747 mmHg 77%
    20:00 -1°C° 0 mm 4 mps 747 mmHg 79%
    21:00 -2°C° 0 mm 4 mps 747 mmHg 82%
    22:00 -1°C° 0 mm 3 mps 747 mmHg 84%
    23:00 -1°C° 0 mm 3 mps 748 mmHg 82%

    Day after tomorrow, 17 October, Thursday

    Time Temperature Precipitation Wind Pressure Humidity
    00:00 -1°C° 0 mm 3 mps 748 mmHg 79%
    01:00 -1°C° 0 mm 3 mps 748 mmHg 76%
    02:00 -1°C° 0 mm 3 mps 749 mmHg 79%
    03:00 -1°C° 0 mm 3 mps 749 mmHg 82%
    04:00 -2°C° 0 mm 3 mps 749 mmHg 85%
    05:00 -2°C° 0 mm 2 mps 749 mmHg 86%
    06:00 -2°C° 0 mm 2 mps 749 mmHg 87%
    07:00 -2°C° 0 mm 2 mps 749 mmHg 88%
    08:00 -1°C° 0 mm 2 mps 749 mmHg 83%
    09:00 -1°C° 0 mm 3 mps 749 mmHg 78%
    10:00 0°C° 0 mm 3 mps 749 mmHg 73%
    11:00 +1°C° 0 mm 3 mps 749 mmHg 75%
    12:00 0°C° 0 mm 4 mps 749 mmHg 76%
    13:00 0°C° 0 mm 4 mps 748 mmHg 77%
    14:00 0°C° 0.1 mm 4 mps 748 mmHg 83%
    15:00 -1°C° 0.1 mm 5 mps 747 mmHg 89%
    16:00 -1°C° 0.1 mm 5 mps 747 mmHg 95%
    17:00 -1°C° 0 mm 5 mps 746 mmHg 93%
    18:00 -1°C° 0 mm 6 mps 745 mmHg 91%
    19:00 -1°C° 0 mm 6 mps 744 mmHg 89%
    20:00 -1°C° 0 mm 6 mps 744 mmHg 86%
    21:00 0°C° 0 mm 7 mps 743 mmHg 84%
    22:00 0°C° 0 mm 7 mps 742 mmHg 81%
    23:00 0°C° 0.4 mm 7 mps 741 mmHg 83%

    18 October, Friday

    Time Temperature Precipitation Wind Pressure Humidity
    00:00 +1°C° 0.4 mm 6 mps 741 mmHg 86%
    01:00 +1°C° 0.4 mm 6 mps 740 mmHg 88%
    02:00 +1°C° 0.3 mm 6 mps 739 mmHg 89%
    03:00 +2°C° 0.3 mm 6 mps 739 mmHg 90%
    04:00 +2°C° 0.3 mm 6 mps 739 mmHg 92%
    05:00 +2°C° 0.5 mm 6 mps 739 mmHg 93%
    06:00 +2°C° 0.5 mm 5 mps 739 mmHg 94%
    07:00 +2°C° 0.5 mm 5 mps 739 mmHg 96%
    08:00 +2°C° 0.1 mm 5 mps 739 mmHg 93%
    09:00 +3°C° 0.1 mm 4 mps 739 mmHg 91%
    10:00 +3°C° 0.1 mm 4 mps 739 mmHg 89%
    11:00 +2°C° 0 mm 5 mps 740 mmHg 85%
    12:00 +2°C° 0 mm 5 mps 741 mmHg 80%
    13:00 +2°C° 0 mm 6 mps 741 mmHg 76%
    14:00 +2°C° 0 mm 5 mps 742 mmHg 75%
    15:00 +1°C° 0 mm 5 mps 742 mmHg 74%
    16:00 +1°C° 0 mm 5 mps 743 mmHg 73%
    17:00 0°C° 0 mm 5 mps 743 mmHg 74%
    18:00 0°C° 0 mm 5 mps 744 mmHg 74%
    19:00 0°C° 0 mm 4 mps 745 mmHg 75%
    20:00 -1°C° 0 mm 4 mps 745 mmHg 78%
    21:00 -2°C° 0 mm 4 mps 746 mmHg 81%
    22:00 -2°C° 0 mm 4 mps 746 mmHg 84%
    23:00 -3°C° 0 mm 4 mps 747 mmHg 84%

    19 October, Saturday

    Time Temperature Precipitation Wind Pressure Humidity
    00:00 -3°C° 0 mm 4 mps 747 mmHg 83%
    01:00 -3°C° 0 mm 4 mps 747 mmHg 83%
    02:00 -4°C° 0 mm 4 mps 747 mmHg 83%
    03:00 -4°C° 0 mm 4 mps 748 mmHg 82%
    04:00 -4°C° 0 mm 4 mps 748 mmHg 81%
    05:00 -4°C° 0 mm 4 mps 748 mmHg 80%
    06:00 -4°C° 0 mm 4 mps 749 mmHg 79%
    07:00 -4°C° 0 mm 4 mps 749 mmHg 78%
    08:00 -3°C° 0 mm 4 mps 749 mmHg 73%
    09:00 -2°C° 0 mm 4 mps 750 mmHg 68%
    10:00 -2°C° 0 mm 4 mps 750 mmHg 63%
    11:00 -1°C° 0 mm 4 mps 750 mmHg 60%
    12:00 +1°C° 0 mm 3 mps 750 mmHg 57%
    13:00 +2°C° 0 mm 3 mps 750 mmHg 54%
    14:00 +2°C° 0 mm 3 mps 750 mmHg 57%
    15:00 +3°C° 0 mm 2 mps 750 mmHg 60%
    16:00 +3°C° 0 mm 2 mps 750 mmHg 64%
    17:00 +2°C° 0 mm 2 mps 750 mmHg 68%
    18:00 +1°C° 0 mm 2 mps 750 mmHg 73%
    19:00 +1°C° 0 mm 1 mps 750 mmHg 77%
    20:00 -2°C° 0 mm 2 mps 751 mmHg 78%
    21:00 -2°C° 0 mm 2 mps 751 mmHg 78%
    22:00 -2°C° 0 mm 2 mps 751 mmHg 79%
    23:00 -2°C° 0 mm 2 mps 751 mmHg 79%

    20 October, Sunday

    Time Temperature Precipitation Wind Pressure Humidity
    00:00 -2°C° 0 mm 2 mps 751 mmHg 79%
    01:00 -2°C° 0 mm 3 mps 751 mmHg 79%
    02:00 -2°C° 0 mm 3 mps 751 mmHg 78%
    03:00 -2°C° 0 mm 3 mps 751 mmHg 77%
    04:00 -2°C° 0 mm 3 mps 751 mmHg 76%
    05:00 -2°C° 0 mm 3 mps 751 mmHg 76%
    06:00 -2°C° 0 mm 3 mps 751 mmHg 76%
    07:00 -4°C° 0 mm 3 mps 751 mmHg 76%
    08:00 -2°C° 0 mm 3 mps 751 mmHg 73%
    09:00 -1°C° 0 mm 3 mps 751 mmHg 71%
    10:00 0°C° 0 mm 3 mps 752 mmHg 68%
    11:00 0°C° 0 mm 3 mps 752 mmHg 68%
    12:00 +1°C° 0 mm 3 mps 752 mmHg 68%
    13:00 +2°C° 0 mm 3 mps 752 mmHg 67%
    14:00 +1°C° 0 mm 3 mps 751 mmHg 71%
    15:00 +2°C° 0 mm 2 mps 751 mmHg 74%
    16:00 +2°C° 0 mm 2 mps 751 mmHg 77%
    17:00 +1°C° 0 mm 2 mps 752 mmHg 81%
    18:00 -1°C° 0 mm 2 mps 752 mmHg 86%
    19:00 -2°C° 0 mm 2 mps 752 mmHg 90%
    20:00 -2°C° 0 mm 2 mps 752 mmHg 91%
    21:00 -2°C° 0 mm 2 mps 752 mmHg 92%
    22:00 -2°C° 0 mm 2 mps 752 mmHg 92%
    23:00 -2°C° 0 mm 2 mps 752 mmHg 93%
    Show more